Home > Weather > Fort Collins > Past weeks

Flag for U.S.A. Weather for the Past 2 Weeks in Fort Collins, Colorado, U.S.A.

Now
39 °F

Sunny.


Feels Like: 37 °F
Forecast: 29 / 56 °F
Wind: 3 mph from Southeast

Location: Fort Collins-Loveland Municipal Airport

Current Time: Feb 13, 2016 at 2:56:00 PM

Latest Report: Feb 13, 2016 at 1:55 PM


Visibility: 10 mi

Pressure: 29.96 "Hg (24.83 "Hg at 1522m altitude)

Humidity: 93%

Dew point: 37 °F

Location of Fort CollinsLocation

Historic Weather in Fort Collins — Graph

°F

Fort Collins Temperature Yesterday

Maximum temperature yesterday: 48 °F (at 11:35 AM)
Minimum temperature yesterday: 30 °F (at 5:35 AM)
Average temperature yesterday: 38 °F

High & Low Weather Summary for the Past Weeks

 TemperatureHumidityPressure
High63 °F (Feb 10, 12:15 PM)100% (Jan 31, 5:55 AM)30.43 "Hg (Jan 31, 5:55 AM)
Low-2 °F (Feb 4, 5:35 AM)19% (Feb 10, 1:35 PM)29.47 "Hg (Jan 30, 1:55 PM)
Average29 °F67%30.08 "Hg
* Reported Jan 29 1:15 PM — Feb 13 1:35 PM, Fort Collins, Weather by CustomWeather, © 2016

Note: Actual official high and low records may vary slightly from our data, if they occured in-between our weather recording intervals... More about our weather records

Advertising

Fort Collins Weather History for the Previous 24 Hours

 ConditionsComfort  
Time TempWeatherWind HumidityBarometerVisibility
1:35 PM
Sat, Feb 13
39 °FSunny.No wind93%29.96 "Hg10 mi
1:15 PM37 °FPassing clouds.No wind87%29.97 "Hg9 mi
12:55 PM34 °FPartly sunny.3 mph87%29.98 "Hg4 mi
12:35 PM32 °FLow clouds.No wind93%30.00 "Hg3 mi
12:15 PM30 °FLow clouds.5 mph100%30.02 "Hg1 mi
11:55 AM30 °FLow clouds.6 mph100%30.02 "Hg1 mi
11:35 AM32 °FLow clouds.7 mph93%30.02 "Hg0 mi
11:15 AM30 °FLow clouds.5 mph93%30.03 "Hg0 mi
10:55 AM30 °FLow clouds.No wind93%30.05 "Hg0 mi
10:35 AM28 °FLow clouds.No wind100%30.05 "Hg0 mi
10:15 AM28 °FLow clouds.3 mph100%30.06 "Hg0 mi
9:55 AM28 °FLow clouds.No wind100%30.07 "Hg0 mi
9:35 AM30 °FLow clouds.No wind93%30.08 "Hg0 mi
9:15 AM28 °FLow clouds.No wind100%30.08 "Hg0 mi
8:55 AM28 °FLow clouds.No wind100%30.08 "Hg0 mi
8:35 AM28 °FLow clouds.No wind93%30.08 "Hg0 mi
8:15 AM28 °FLow clouds.No wind93%30.09 "Hg0 mi
7:55 AM28 °FLow clouds.5 mph100%30.09 "Hg0 mi
7:35 AM28 °FLow clouds.No wind100%30.10 "Hg0 mi
7:15 AM28 °FLow clouds.No wind93%30.09 "Hg0 mi
6:55 AM28 °FLow clouds.No wind100%30.10 "Hg0 mi
6:35 AM28 °FLow clouds.No wind100%30.10 "Hg0 mi
6:15 AM28 °FLow clouds.No wind100%30.10 "Hg0 mi
5:55 AM28 °FLow clouds.No wind100%30.10 "Hg0 mi
5:35 AM28 °FLow clouds.No wind100%30.11 "Hg0 mi
5:15 AM30 °FLow clouds.No wind93%30.12 "Hg0 mi
4:55 AM30 °FLow clouds.No wind93%30.12 "Hg0 mi
4:35 AM30 °FLow clouds.No wind93%30.12 "Hg0 mi
4:15 AM30 °FLow clouds.No wind93%30.13 "Hg0 mi
3:55 AM30 °FLow clouds.No wind93%30.14 "Hg0 mi
3:35 AM30 °FLow clouds.No wind93%30.14 "Hg0 mi
3:15 AM30 °FLow clouds.No wind93%30.15 "Hg1 mi
2:55 AM30 °FLow clouds.No wind93%30.16 "Hg1 mi
2:35 AM30 °FLow clouds.No wind93%30.17 "Hg1 mi
2:15 AM30 °FLow clouds.No wind93%30.17 "Hg1 mi
1:55 AM30 °FLow clouds.No wind93%30.18 "Hg1 mi
1:15 AM30 °FLow clouds.No wind93%30.18 "Hg0 mi
12:55 AM30 °FLow clouds.5 mph93%30.19 "Hg1 mi
12:35 AM30 °FLow clouds.6 mph93%30.21 "Hg0 mi
12:15 AM30 °FLow clouds.5 mph93%30.21 "Hg0 mi
11:55 PM
Fri, Feb 12
30 °FLow clouds.6 mph93%30.22 "Hg0 mi
11:35 PM30 °FLow clouds.8 mph93%30.22 "Hg0 mi
11:15 PM32 °FLow clouds.8 mph87%30.23 "Hg0 mi
10:55 PM32 °FLow clouds.7 mph87%30.24 "Hg0 mi
10:35 PM32 °FLow clouds.6 mph87%30.25 "Hg1 mi
10:15 PM32 °FLow clouds.6 mph87%30.25 "Hg4 mi
9:55 PM32 °FLow clouds.5 mph87%30.26 "Hg10 mi
9:35 PM34 °FOvercast.7 mph81%30.27 "Hg10 mi
9:15 PM34 °FPassing clouds.No wind81%30.27 "Hg10 mi
8:55 PM32 °FClear.No wind80%30.27 "Hg10 mi
8:35 PM30 °FClear.No wind86%30.28 "Hg10 mi
8:15 PM34 °FClear.No wind75%30.28 "Hg10 mi
7:35 PM36 °FClear.8 mph81%30.27 "Hg10 mi
7:15 PM36 °FClear.8 mph81%30.27 "Hg10 mi
6:35 PM37 °FClear.7 mph75%30.28 "Hg10 mi
5:55 PM41 °FClear.6 mph61%30.28 "Hg10 mi
5:35 PM43 °FClear.No wind57%30.28 "Hg10 mi
5:15 PM45 °FSunny.3 mph53%30.27 "Hg10 mi
4:55 PM45 °FSunny.6 mph57%30.26 "Hg10 mi
4:15 PM46 °FSunny.7 mph50%30.26 "Hg10 mi
3:55 PM46 °FSunny.7 mph50%30.26 "Hg10 mi
3:35 PM46 °FSunny.7 mph53%30.26 "Hg10 mi
3:15 PM46 °FSunny.9 mph50%30.26 "Hg10 mi
2:35 PM46 °FSunny.9 mph50%30.26 "Hg10 mi
Weather by CustomWeather, © 2016

See weather overviewHow to use our weather pages